Time,TemperatureF,DewpointF,PressureIn,WindDirection,WindDirectionDegrees,WindSpeedMPH,WindSpeedGustMPH,Humidity,HourlyPrecipIn,Conditions,Clouds,dailyrainin,SoftwareType,DateUTC
2013-05-18 00:00:00,46.3,35.5,24.11,North,0,0.0,-999.0,66,0.00,,,0.00,,2013-05-18 07:00:00,
2013-05-18 01:00:00,45.9,34.7,24.11,North,0,0.0,-999.0,65,0.00,,,0.00,,2013-05-18 08:00:00,
2013-05-18 02:00:00,45.0,33.9,24.11,North,0,0.0,-999.0,65,0.00,,,0.00,,2013-05-18 09:00:00,
2013-05-18 03:00:00,45.0,33.1,24.11,North,0,0.0,-999.0,63,0.00,,,0.00,,2013-05-18 10:00:00,
2013-05-18 04:00:00,43.6,33.3,24.11,North,0,0.0,-999.0,67,0.00,,,0.00,,2013-05-18 11:00:00,
2013-05-18 05:00:00,44.3,32.5,24.12,North,0,0.0,-999.0,63,0.00,,,0.00,,2013-05-18 12:00:00,
2013-05-18 06:00:00,42.5,32.3,24.13,North,0,0.0,-999.0,67,0.00,,,0.00,,2013-05-18 13:00:00,
2013-05-18 07:05:00,44.3,32.5,24.13,North,0,0.0,-999.0,63,0.00,,,0.00,,2013-05-18 14:05:00,
2013-05-18 08:05:00,47.9,32.9,0.00,North,0,0.0,-999.0,56,0.00,,,0.00,,2013-05-18 15:05:00,
2013-05-18 09:05:00,54.4,33.8,0.00,North,0,0.0,-999.0,46,0.00,,,0.00,,2013-05-18 16:05:00,
2013-05-18 10:05:00,58.9,36.3,0.00,North,0,0.0,-999.0,43,0.00,,,0.00,,2013-05-18 17:05:00,
2013-05-18 11:05:00,54.9,36.6,0.00,North,0,0.0,-999.0,50,0.00,,,0.00,,2013-05-18 18:05:00,
2013-05-18 12:05:00,55.8,36.4,0.00,North,0,0.0,-999.0,48,0.00,,,0.00,,2013-05-18 19:05:00,
2013-05-18 13:05:00,56.7,36.6,0.00,North,0,0.0,-999.0,47,0.00,,,0.00,,2013-05-18 20:05:00,
2013-05-18 14:05:00,56.9,36.3,0.00,North,0,0.0,-999.0,46,0.00,,,0.00,,2013-05-18 21:05:00,
2013-05-18 15:05:00,56.9,35.1,0.00,North,0,0.0,-999.0,44,0.00,,,0.00,,2013-05-18 22:05:00,
2013-05-18 16:05:00,57.1,34.7,0.00,North,0,0.0,-999.0,43,0.00,,,0.00,,2013-05-18 23:05:00,
2013-05-18 17:05:00,56.7,34.9,0.00,North,0,0.0,-999.0,44,0.00,,,0.00,,2013-05-19 00:05:00,
2013-05-18 18:00:00,54.7,34.7,24.14,North,0,0.0,-999.0,47,0.00,,,0.00,,2013-05-19 01:00:00,
2013-05-18 19:00:00,52.2,34.2,24.14,North,0,0.0,-999.0,50,0.00,,,0.00,,2013-05-19 02:00:00,
2013-05-18 20:00:00,50.0,34.0,24.14,North,0,0.0,-999.0,54,0.00,,,0.00,,2013-05-19 03:00:00,
2013-05-18 21:00:00,48.2,33.2,24.16,North,0,0.0,-999.0,56,0.00,,,0.00,,2013-05-19 04:00:00,
2013-05-18 22:00:00,47.9,32.0,24.17,North,0,0.0,-999.0,54,0.00,,,0.00,,2013-05-19 05:00:00,
2013-05-18 23:00:00,48.2,31.9,24.17,North,0,0.0,-999.0,53,0.00,,,0.00,,2013-05-19 06:00:00,